,,PA_Meas_PMT16A,,PR_Meas_QMR101_102,,RH_Meas_QMH101,,SR_Meas_QMS101,,TA_Meas_QMH101,,GenWind,,GenWind,
time,status,PA,status,PR,status,RH,status,SR,status,TA,status,DirAvg,status,SpdAvg,
2015-01-19, 00:00:04,VALID,919.858,VALID,0,VALID,90.6195,VALID,0,VALID,19.3143,VALID,150,VALID,0,
2015-01-19, 00:01:04,VALID,919.836,VALID,0,VALID,90.8635,VALID,0,VALID,19.2948,VALID,150,VALID,0,
2015-01-19, 00:02:04,VALID,919.816,VALID,0,VALID,91.0465,VALID,0,VALID,19.2558,VALID,150,VALID,0,
2015-01-19, 00:03:04,VALID,919.765,VALID,0,VALID,91.0465,VALID,0,VALID,19.2168,VALID,150,VALID,0,
2015-01-19, 00:04:04,VALID,919.797,VALID,0,VALID,91.0007,VALID,0,VALID,19.1973,VALID,148,VALID,0,
2015-01-19, 00:05:04,VALID,919.766,VALID,0,VALID,90.9626,VALID,0,VALID,19.1778,VALID,142,VALID,0,
2015-01-19, 00:06:04,VALID,919.778,VALID,0,VALID,90.7873,VALID,0,VALID,19.1193,VALID,140,VALID,0,
2015-01-19, 00:07:04,VALID,919.765,VALID,0,VALID,91.0846,VALID,0,VALID,19.0998,VALID,136,VALID,0,
2015-01-19, 00:08:04,VALID,919.745,VALID,0,VALID,90.8483,VALID,0,VALID,19.0608,VALID,136,VALID,0,
2015-01-19, 00:09:04,VALID,919.714,VALID,0,VALID,90.9397,VALID,0,VALID,19.0023,VALID,135,VALID,0,
2015-01-19, 00:10:04,VALID,919.679,VALID,0,VALID,91.1989,VALID,0,VALID,18.9438,VALID,135,VALID,0,
2015-01-19, 00:11:04,VALID,919.654,VALID,0,VALID,91.1532,VALID,0,VALID,18.8658,VALID,135,VALID,0,
2015-01-19, 00:12:04,VALID,919.662,VALID,0,VALID,91.4581,VALID,0,VALID,18.8073,VALID,135,VALID,0,
2015-01-19, 00:13:04,VALID,919.626,VALID,0,VALID,91.8012,VALID,0,VALID,18.7683,VALID,135,VALID,0,
2015-01-19, 00:14:04,VALID,919.603,VALID,0,VALID,92.0604,VALID,0,VALID,18.6903,VALID,135,VALID,0,
2015-01-19, 00:15:04,VALID,919.594,VALID,0,VALID,92.9447,VALID,0,VALID,18.7084,VALID,135,VALID,0,
2015-01-19, 00:16:04,VALID,919.574,VALID,0,VALID,93.364,VALID,0,VALID,18.7279,VALID,135,VALID,0,
2015-01-19, 00:17:04,VALID,919.539,VALID,0,VALID,93.829,VALID,0.107441,VALID,18.7474,VALID,117,VALID,0,
2015-01-19, 00:18:04,VALID,919.507,VALID,0,VALID,93.7528,VALID,0,VALID,18.7669,VALID,112,VALID,0,
2015-01-19, 00:19:04,VALID,919.459,VALID,0,VALID,93.7299,VALID,0,VALID,18.7669,VALID,112,VALID,0,
2015-01-19, 00:20:04,VALID,919.452,VALID,0,VALID,93.9434,VALID,0,VALID,18.8254,VALID,114,VALID,0,
2015-01-19, 00:21:04,VALID,919.462,VALID,0,VALID,93.9052,VALID,0,VALID,18.8644,VALID,117,VALID,0,
2015-01-19, 00:22:04,VALID,919.45,VALID,0,VALID,93.768,VALID,0,VALID,18.9424,VALID,117,VALID,0,
2015-01-19, 00:23:04,VALID,919.449,VALID,0,VALID,93.181,VALID,0,VALID,18.9814,VALID,117,VALID,0,
2015-01-19, 00:24:04,VALID,919.406,VALID,0,VALID,92.716,VALID,0,VALID,18.9814,VALID,119,VALID,0,
2015-01-19, 00:25:04,VALID,919.417,VALID,0,VALID,92.472,VALID,0,VALID,18.9814,VALID,122,VALID,0,
2015-01-19, 00:26:04,VALID,919.405,VALID,0,VALID,92.2586,VALID,0,VALID,19.0008,VALID,122,VALID,0,
2015-01-19, 00:27:04,VALID,919.351,VALID,0,VALID,92.0832,VALID,0,VALID,19.0008,VALID,125,VALID,0,
2015-01-19, 00:28:04,VALID,919.362,VALID,0,VALID,91.946,VALID,0,VALID,19.0413,VALID,124,VALID,0,
2015-01-19, 00:29:04,VALID,919.375,VALID,0,VALID,91.7783,VALID,0,VALID,19.0203,VALID,124,VALID,0,
2015-01-19, 00:30:04,VALID,919.347,VALID,0,VALID,91.7631,VALID,0,VALID,18.9994,VALID,122,VALID,0,
2015-01-19, 00:31:04,VALID,919.355,VALID,0,VALID,91.7249,VALID,0,VALID,19.0203,VALID,122,VALID,0,
2015-01-19, 00:32:04,VALID,919.371,VALID,0,VALID,91.7097,VALID,0.107441,VALID,19.0008,VALID,122,VALID,0,
2015-01-19, 00:33:04,VALID,919.285,VALID,0,VALID,91.9384,VALID,0,VALID,19.0203,VALID,122,VALID,0,
2015-01-19, 00:34:04,VALID,919.313,VALID,0,VALID,91.664,VALID,0,VALID,19.0203,VALID,118,VALID,0,
2015-01-19, 00:35:04,VALID,919.317,VALID,0,VALID,91.6182,VALID,0.107441,VALID,19.0398,VALID,116,VALID,0,
2015-01-19, 00:36:04,VALID,919.291,VALID,0,VALID,91.5648,VALID,0,VALID,19.0593,VALID,116,VALID,0,
2015-01-19, 00:37:04,VALID,919.295,VALID,0,VALID,91.4657,VALID,0,VALID,19.0593,VALID,126,VALID,0,
2015-01-19, 00:38:04,VALID,919.304,VALID,0,VALID,91.3209,VALID,0,VALID,19.0398,VALID,126,VALID,0,
2015-01-19, 00:39:04,VALID,919.277,VALID,0,VALID,91.2218,VALID,0.107441,VALID,19.0593,VALID,130,VALID,0,
2015-01-19, 00:40:04,VALID,919.283,VALID,0,VALID,91.0846,VALID,0.107441,VALID,19.0579,VALID,130,VALID,0,
2015-01-19, 00:41:04,VALID,919.287,VALID,0,VALID,90.8178,VALID,0,VALID,19.0788,VALID,130,VALID,0,
2015-01-19, 00:42:04,VALID,919.306,VALID,0,VALID,90.6805,VALID,0,VALID,19.0593,VALID,130,VALID,0,
2015-01-19, 00:43:04,VALID,919.303,VALID,0,VALID,90.8178,VALID,0,VALID,19.0803,VALID,152,VALID,0,
2015-01-19, 00:44:04,VALID,919.309,VALID,0,VALID,90.8254,VALID,0,VALID,19.0593,VALID,152,VALID,0,
2015-01-19, 00:45:04,VALID,919.341,VALID,0,VALID,90.9855,VALID,0.107441,VALID,19.0788,VALID,152,VALID,0,
2015-01-19, 00:46:04,VALID,919.309,VALID,0,VALID,90.9321,VALID,0.107441,VALID,19.0593,VALID,146,VALID,0,
2015-01-19, 00:47:04,VALID,919.312,VALID,0,VALID,90.6729,VALID,0,VALID,19.0398,VALID,146,VALID,0,
2015-01-19, 00:48:04,VALID,919.286,VALID,0,VALID,90.6958,VALID,0.107441,VALID,19.0774,VALID,143,VALID,0,
2015-01-19, 00:49:04,VALID,919.253,VALID,0,VALID,90.3908,VALID,0,VALID,19.1388,VALID,143,VALID,0,
2015-01-19, 00:50:04,VALID,919.224,VALID,0,VALID,90.1088,VALID,0.107441,VALID,19.1373,VALID,126,VALID,0,
2015-01-19, 00:51:05,VALID,919.214,VALID,0,VALID,89.8801,VALID,0,VALID,19.1958,VALID,126,VALID,0,
2015-01-19, 00:52:05,VALID,919.251,VALID,0,VALID,89.3083,VALID,0.107441,VALID,19.3323,VALID,129,VALID,0,
2015-01-19, 00:53:05,VALID,919.271,VALID,0,VALID,88.6146,VALID,0,VALID,19.3713,VALID,135,VALID,0,
2015-01-19, 00:54:05,VALID,919.293,VALID,0,VALID,88.2715,VALID,0,VALID,19.4103,VALID,116,VALID,0,
2015-01-19, 00:55:05,VALID,919.314,VALID,0,VALID,88.1343,VALID,0.107441,VALID,19.4688,VALID,129,VALID,0.763281,
2015-01-19, 00:56:05,VALID,919.335,VALID,0,VALID,87.6845,VALID,0.107441,VALID,19.5273,VALID,121,VALID,0,
2015-01-19, 00:57:05,VALID,919.351,VALID,0,VALID,87.4711,VALID,0,VALID,19.5078,VALID,115,VALID,0,
2015-01-19, 00:58:05,VALID,919.355,VALID,0,VALID,87.5549,VALID,0.107441,VALID,19.5273,VALID,115,VALID,0,
2015-01-19, 00:59:05,VALID,919.357,VALID,0,VALID,87.6617,VALID,0,VALID,19.5273,VALID,117,VALID,0,
2015-01-19, 01:00:05,VALID,919.384,VALID,0,VALID,87.7303,VALID,0.107441,VALID,19.5078,VALID,134,VALID,0,
2015-01-19, 01:01:05,VALID,919.404,VALID,0,VALID,87.7913,VALID,0,VALID,19.4688,VALID,133,VALID,0,
2015-01-19, 01:02:05,VALID,919.387,VALID,0,VALID,87.837,VALID,0,VALID,19.4298,VALID,132,VALID,0,
2015-01-19, 01:03:05,VALID,919.381,VALID,0,VALID,88.1572,VALID,0.107441,VALID,19.3323,VALID,140,VALID,0,
2015-01-19, 01:04:05,VALID,919.396,VALID,0,VALID,88.7823,VALID,0,VALID,19.2738,VALID,152,VALID,0,
2015-01-19, 01:05:05,VALID,919.41,VALID,0,VALID,89.194,VALID,0,VALID,19.2153,VALID,159,VALID,0,
2015-01-19, 01:06:05,VALID,919.387,VALID,0,VALID,89.7581,VALID,0,VALID,19.1373,VALID,159,VALID,0,
2015-01-19, 01:07:05,VALID,919.364,VALID,0,VALID,90.1316,VALID,0,VALID,19.0983,VALID,158,VALID,0,
2015-01-19, 01:08:05,VALID,919.356,VALID,0,VALID,90.2917,VALID,0,VALID,19.0203,VALID,157,VALID,0,
2015-01-19, 01:09:05,VALID,919.319,VALID,0,VALID,90.772,VALID,0,VALID,18.9619,VALID,128,VALID,0,
2015-01-19, 01:10:05,VALID,919.325,VALID,0,VALID,91.3971,VALID,0.107441,VALID,18.9229,VALID,133,VALID,0,
2015-01-19, 01:11:05,VALID,919.292,VALID,0,VALID,91.6792,VALID,0.107441,VALID,18.8839,VALID,139,VALID,0,
2015-01-19, 01:12:05,VALID,919.247,VALID,0,VALID,91.6945,VALID,0.107441,VALID,18.8839,VALID,139,VALID,0,
2015-01-19, 01:13:05,VALID,919.272,VALID,0,VALID,91.5267,VALID,0.107441,VALID,18.8839,VALID,138,VALID,0,
2015-01-19, 01:14:05,VALID,919.223,VALID,0,VALID,91.3133,VALID,0.107441,VALID,18.8839,VALID,143,VALID,0,
2015-01-19, 01:15:05,VALID,919.225,VALID,0,VALID,91.1227,VALID,0,VALID,18.9243,VALID,132,VALID,0,
2015-01-19, 01:16:05,VALID,919.195,VALID,0,VALID,90.7949,VALID,0,VALID,18.9828,VALID,118,VALID,0,
2015-01-19, 01:17:05,VALID,919.185,VALID,0,VALID,90.711,VALID,0,VALID,18.9828,VALID,128,VALID,0,
2015-01-19, 01:18:05,VALID,919.166,VALID,0,VALID,90.6729,VALID,0,VALID,19.0218,VALID,135,VALID,0,
2015-01-19, 01:19:05,VALID,919.126,VALID,0,VALID,90.6272,VALID,0,VALID,19.0413,VALID,117,VALID,0,
2015-01-19, 01:20:05,VALID,919.095,VALID,0,VALID,90.5052,VALID,0,VALID,19.0413,VALID,113,VALID,0.00429688,
2015-01-19, 01:21:05,VALID,919.054,VALID,0,VALID,90.6805,VALID,0,VALID,19.0232,VALID,118,VALID,0,
2015-01-19, 01:22:05,VALID,919.014,VALID,0,VALID,90.5662,VALID,0,VALID,18.9633,VALID,112,VALID,0.00117188,
2015-01-19, 01:23:05,VALID,918.973,VALID,0,VALID,90.6805,VALID,0,VALID,18.9243,VALID,108,VALID,0,
2015-01-19, 01:24:05,VALID,918.959,VALID,0,VALID,90.8864,VALID,0,VALID,18.8644,VALID,108,VALID,0,
2015-01-19, 01:25:05,VALID,918.931,VALID,0,VALID,91.1532,VALID,0,VALID,18.8463,VALID,108,VALID,0,
2015-01-19, 01:26:05,VALID,918.934,VALID,0,VALID,91.3666,VALID,0,VALID,18.8073,VALID,108,VALID,0,
2015-01-19, 01:27:05,VALID,918.948,VALID,0,VALID,91.5953,VALID,0,VALID,18.8087,VALID,108,VALID,0,
2015-01-19, 01:28:05,VALID,918.98,VALID,0,VALID,91.7859,VALID,0,VALID,18.8073,VALID,108,VALID,0,
2015-01-19, 01:29:05,VALID,918.95,VALID,0,VALID,91.7935,VALID,0,VALID,18.8073,VALID,108,VALID,0,
2015-01-19, 01:30:05,VALID,918.95,VALID,0,VALID,91.5267,VALID,0,VALID,18.8073,VALID,108,VALID,0,
2015-01-19, 01:31:05,VALID,918.899,VALID,0,VALID,91.4734,VALID,0,VALID,18.7683,VALID,108,VALID,0,
2015-01-19, 01:32:05,VALID,918.876,VALID,0,VALID,91.7021,VALID,0,VALID,18.7293,VALID,108,VALID,0,
2015-01-19, 01:33:05,VALID,918.858,VALID,0,VALID,91.9765,VALID,0,VALID,18.7293,VALID,108,VALID,0,
2015-01-19, 01:34:05,VALID,918.853,VALID,0,VALID,92.0299,VALID,0,VALID,18.7488,VALID,108,VALID,0,
2015-01-19, 01:35:05,VALID,918.814,VALID,0,VALID,91.885,VALID,0,VALID,18.7683,VALID,108,VALID,0,
2015-01-19, 01:36:05,VALID,918.821,VALID,0,VALID,91.3361,VALID,0,VALID,18.7293,VALID,108,VALID,0,
2015-01-19, 01:37:05,VALID,918.803,VALID,0,VALID,91.298,VALID,0,VALID,18.6513,VALID,108,VALID,0,
2015-01-19, 01:38:05,VALID,918.789,VALID,0,VALID,92.0146,VALID,0,VALID,18.6513,VALID,108,VALID,0,
2015-01-19, 01:39:05,VALID,918.75,VALID,0,VALID,92.2128,VALID,0,VALID,18.7098,VALID,108,VALID,0,
2015-01-19, 01:40:05,VALID,918.768,VALID,0,VALID,92.0832,VALID,0,VALID,18.7488,VALID,119,VALID,0,
2015-01-19, 01:41:05,VALID,918.756,VALID,0,VALID,91.8545,VALID,0,VALID,18.7878,VALID,128,VALID,0,
2015-01-19, 01:42:05,VALID,918.733,VALID,0,VALID,91.5267,VALID,0,VALID,18.7878,VALID,128,VALID,0,
2015-01-19, 01:43:05,VALID,918.709,VALID,0,VALID,91.2447,VALID,0,VALID,18.8268,VALID,129,VALID,0,
2015-01-19, 01:44:05,VALID,918.706,VALID,0,VALID,91.1456,VALID,0,VALID,18.8463,VALID,129,VALID,0,
2015-01-19, 01:45:05,VALID,918.65,VALID,0,VALID,91.0998,VALID,0,VALID,18.8658,VALID,129,VALID,0,
2015-01-19, 01:46:05,VALID,918.631,VALID,0,VALID,90.955,VALID,0,VALID,18.8853,VALID,125,VALID,0,
2015-01-19, 01:47:05,VALID,918.609,VALID,0,VALID,90.9016,VALID,0,VALID,18.9243,VALID,125,VALID,0,
2015-01-19, 01:48:05,VALID,918.613,VALID,0,VALID,90.7796,VALID,0,VALID,19.0023,VALID,125,VALID,0,
2015-01-19, 01:49:05,VALID,918.606,VALID,0,VALID,90.5128,VALID,0,VALID,19.0413,VALID,125,VALID,0,
2015-01-19, 01:50:05,VALID,918.634,VALID,0,VALID,90.1469,VALID,0,VALID,19.0413,VALID,125,VALID,0,
2015-01-19, 01:51:05,VALID,918.583,VALID,0,VALID,89.8572,VALID,0,VALID,19.0218,VALID,117,VALID,0,
2015-01-19, 01:52:05,VALID,918.588,VALID,0,VALID,89.8953,VALID,0,VALID,18.9828,VALID,122,VALID,0,
2015-01-19, 01:53:05,VALID,918.557,VALID,0,VALID,89.8648,VALID,0,VALID,18.9229,VALID,115,VALID,0,
2015-01-19, 01:54:05,VALID,918.522,VALID,0,VALID,90.1469,VALID,0,VALID,18.9243,VALID,128,VALID,0,
2015-01-19, 01:55:05,VALID,918.493,VALID,0,VALID,90.5586,VALID,0,VALID,18.9243,VALID,132,VALID,0,
2015-01-19, 01:56:05,VALID,918.471,VALID,0,VALID,90.6272,VALID,0,VALID,18.9034,VALID,134,VALID,0,
2015-01-19, 01:57:05,VALID,918.483,VALID,0,VALID,90.6882,VALID,0,VALID,18.9438,VALID,140,VALID,0,
2015-01-19, 01:58:05,VALID,918.463,VALID,0,VALID,90.6272,VALID,0,VALID,18.9243,VALID,140,VALID,0,
2015-01-19, 01:59:05,VALID,918.48,VALID,0,VALID,90.6882,VALID,0,VALID,18.8853,VALID,140,VALID,0,
2015-01-19, 02:00:05,VALID,918.462,VALID,0,VALID,90.8559,VALID,0.107441,VALID,18.8449,VALID,140,VALID,0,
2015-01-19, 02:01:05,VALID,918.493,VALID,0,VALID,91.2447,VALID,0.107441,VALID,18.8449,VALID,140,VALID,0,
2015-01-19, 02:02:05,VALID,918.46,VALID,0,VALID,91.3285,VALID,0.107441,VALID,18.8839,VALID,140,VALID,0,
2015-01-19, 02:03:05,VALID,918.455,VALID,0,VALID,91.1456,VALID,0.107441,VALID,18.9229,VALID,140,VALID,0,
2015-01-19, 02:04:05,VALID,918.447,VALID,0,VALID,90.9778,VALID,0.107441,VALID,18.9814,VALID,140,VALID,0,
2015-01-19, 02:05:05,VALID,918.409,VALID,0,VALID,90.7491,VALID,0,VALID,19.0203,VALID,140,VALID,0,
2015-01-19, 02:06:05,VALID,918.412,VALID,0,VALID,90.4442,VALID,0,VALID,19.0398,VALID,140,VALID,0,
2015-01-19, 02:07:05,VALID,918.444,VALID,0,VALID,90.2384,VALID,0.107441,VALID,19.0008,VALID,140,VALID,0,
2015-01-19, 02:08:05,VALID,918.46,VALID,0,VALID,90.2003,VALID,0,VALID,18.9814,VALID,140,VALID,0,
2015-01-19, 02:09:05,VALID,918.425,VALID,0,VALID,90.2308,VALID,0.107441,VALID,18.9424,VALID,140,VALID,0,
2015-01-19, 02:10:05,VALID,918.465,VALID,0,VALID,90.1926,VALID,0.107441,VALID,18.9229,VALID,140,VALID,0,
2015-01-19, 02:11:05,VALID,918.476,VALID,0,VALID,90.2079,VALID,0.107441,VALID,18.8839,VALID,140,VALID,0,
2015-01-19, 02:12:05,VALID,918.457,VALID,0,VALID,90.2231,VALID,0.107441,VALID,18.8449,VALID,140,VALID,0,
2015-01-19, 02:13:05,VALID,918.438,VALID,0,VALID,90.3375,VALID,0.107441,VALID,18.8254,VALID,140,VALID,0,
2015-01-19, 02:14:05,VALID,918.456,VALID,0,VALID,90.4442,VALID,0.107441,VALID,18.8059,VALID,140,VALID,0,
2015-01-19, 02:15:05,VALID,918.438,VALID,0,VALID,90.5891,VALID,0.107441,VALID,18.7669,VALID,140,VALID,0,
2015-01-19, 02:16:05,VALID,918.477,VALID,0,VALID,91.0236,VALID,0.107441,VALID,18.7655,VALID,140,VALID,0,
2015-01-19, 02:17:05,VALID,918.449,VALID,0,VALID,91.2218,VALID,0,VALID,18.8059,VALID,140,VALID,0,
2015-01-19, 02:18:05,VALID,918.437,VALID,0,VALID,91.2447,VALID,0,VALID,18.8254,VALID,140,VALID,0,
2015-01-19, 02:19:05,VALID,918.422,VALID,0,VALID,91.2828,VALID,0,VALID,18.8254,VALID,140,VALID,0,
2015-01-19, 02:20:05,VALID,918.404,VALID,0,VALID,91.1151,VALID,0,VALID,18.8254,VALID,140,VALID,0,
2015-01-19, 02:21:05,VALID,918.402,VALID,0,VALID,91.1227,VALID,0.107441,VALID,18.8059,VALID,140,VALID,0,
2015-01-19, 02:22:05,VALID,918.399,VALID,0,VALID,91.0083,VALID,0.107441,VALID,18.7669,VALID,140,VALID,0,
2015-01-19, 02:23:05,VALID,918.396,VALID,0,VALID,90.9321,VALID,0.107441,VALID,18.7084,VALID,140,VALID,0,
2015-01-19, 02:24:05,VALID,918.367,VALID,0,VALID,90.9626,VALID,0,VALID,18.6109,VALID,140,VALID,0,
2015-01-19, 02:25:05,VALID,918.376,VALID,0,VALID,91.1913,VALID,0.107441,VALID,18.494,VALID,139,VALID,0,
2015-01-19, 02:26:05,VALID,918.323,VALID,0,VALID,91.1608,VALID,0.107441,VALID,18.338,VALID,104,VALID,0,
2015-01-19, 02:27:05,VALID,918.339,VALID,0,VALID,91.9994,VALID,0.107441,VALID,18.2406,VALID,104,VALID,0,
2015-01-19, 02:28:05,VALID,918.34,VALID,0,VALID,92.7617,VALID,0,VALID,18.1626,VALID,104,VALID,0,
2015-01-19, 02:29:05,VALID,918.329,VALID,0,VALID,93.7375,VALID,0.107441,VALID,18.1431,VALID,104,VALID,0,
2015-01-19, 02:30:05,VALID,918.296,VALID,0,VALID,94.5761,VALID,0,VALID,18.125,VALID,105,VALID,0,
2015-01-19, 02:31:05,VALID,918.301,VALID,0,VALID,94.8048,VALID,0,VALID,18.1055,VALID,109,VALID,0,
2015-01-19, 02:32:05,VALID,918.259,VALID,0,VALID,95.1479,VALID,0,VALID,18.125,VALID,144,VALID,0,
2015-01-19, 02:33:05,VALID,918.251,VALID,0,VALID,95.247,VALID,0,VALID,18.1055,VALID,144,VALID,0,
2015-01-19, 02:34:05,VALID,918.2,VALID,0,VALID,95.4299,VALID,0,VALID,18.1055,VALID,130,VALID,0.0160156,
2015-01-19, 02:35:05,VALID,918.164,VALID,0,VALID,95.6815,VALID,0,VALID,18.1055,VALID,137,VALID,0,
2015-01-19, 02:36:05,VALID,918.139,VALID,0,VALID,95.895,VALID,0,VALID,18.1069,VALID,137,VALID,0,
2015-01-19, 02:37:05,VALID,918.138,VALID,0,VALID,95.9483,VALID,0,VALID,18.0679,VALID,130,VALID,0,
2015-01-19, 02:38:05,VALID,918.151,VALID,0,VALID,96.1008,VALID,0,VALID,18.047,VALID,145,VALID,1.54219,
2015-01-19, 02:39:05,VALID,918.175,VALID,0,VALID,96.299,VALID,0,VALID,18.1445,VALID,144,VALID,0.830859,
2015-01-19, 02:40:05,VALID,918.192,VALID,0,VALID,96.3905,VALID,0,VALID,18.1835,VALID,124,VALID,1.75859,
2015-01-19, 02:41:05,VALID,918.19,VALID,0,VALID,96.36,VALID,0,VALID,18.203,VALID,121,VALID,1.39844,
2015-01-19, 02:42:05,VALID,918.182,VALID,0,VALID,96.3066,VALID,0,VALID,18.2016,VALID,123,VALID,1.35,
2015-01-19, 02:43:05,VALID,918.146,VALID,0,VALID,96.2151,VALID,0,VALID,18.2225,VALID,124,VALID,1.85508,
2015-01-19, 02:44:05,VALID,918.151,VALID,0,VALID,96.1694,VALID,0,VALID,18.2406,VALID,121,VALID,1.68984,
2015-01-19, 02:45:05,VALID,918.136,VALID,0,VALID,96.0932,VALID,0,VALID,18.2809,VALID,128,VALID,1.64414,
2015-01-19, 02:46:05,VALID,918.144,VALID,0,VALID,96.0322,VALID,0,VALID,18.3199,VALID,141,VALID,1.90625,
2015-01-19, 02:47:05,VALID,918.152,VALID,0,VALID,95.9864,VALID,0,VALID,18.3589,VALID,123,VALID,1.65195,
2015-01-19, 02:48:05,VALID,918.178,VALID,0,VALID,95.8721,VALID,0,VALID,18.3784,VALID,133,VALID,1.37461,
2015-01-19, 02:49:05,VALID,918.173,VALID,0,VALID,95.7654,VALID,0,VALID,18.377,VALID,128,VALID,1.37148,
2015-01-19, 02:50:05,VALID,918.174,VALID,0,VALID,95.7196,VALID,0,VALID,18.4369,VALID,122,VALID,1.76055,
2015-01-19, 02:51:05,VALID,918.155,VALID,0,VALID,95.6662,VALID,0,VALID,18.4759,VALID,139,VALID,1.22227,
2015-01-19, 02:52:05,VALID,918.15,VALID,0,VALID,95.5671,VALID,0,VALID,18.4759,VALID,134,VALID,1.40469,
2015-01-19, 02:53:05,VALID,918.171,VALID,0,VALID,95.3842,VALID,0.107441,VALID,18.4369,VALID,129,VALID,1.54961,
2015-01-19, 02:54:05,VALID,918.119,VALID,0,VALID,95.3918,VALID,0,VALID,18.4369,VALID,134,VALID,1.7293,
2015-01-19, 02:55:05,VALID,918.107,VALID,0,VALID,95.3918,VALID,0,VALID,18.4369,VALID,126,VALID,1.33359,
2015-01-19, 02:56:05,VALID,918.099,VALID,0,VALID,95.3308,VALID,0,VALID,18.4174,VALID,123,VALID,1.12891,
2015-01-19, 02:57:05,VALID,918.145,VALID,0,VALID,95.2393,VALID,0,VALID,18.4369,VALID,129,VALID,1.22344,
2015-01-19, 02:58:05,VALID,918.074,VALID,0,VALID,95.2927,VALID,0.107441,VALID,18.4954,VALID,128,VALID,1.64688,
2015-01-19, 02:59:05,VALID,918.042,VALID,0,VALID,95.0869,VALID,0,VALID,18.5929,VALID,135,VALID,1.73789,
2015-01-19, 03:00:05,VALID,918.054,VALID,0,VALID,94.4389,VALID,0,VALID,18.6513,VALID,138,VALID,1.55117,
2015-01-19, 03:01:05,VALID,918.05,VALID,0,VALID,93.5317,VALID,0,VALID,18.6903,VALID,141,VALID,0.780078,
2015-01-19, 03:02:05,VALID,918.016,VALID,0,VALID,93.0514,VALID,0,VALID,18.6694,VALID,132,VALID,1.20781,
2015-01-19, 03:03:05,VALID,918.035,VALID,0,VALID,92.7693,VALID,0,VALID,18.6903,VALID,132,VALID,1.40508,
2015-01-19, 03:04:05,VALID,918.055,VALID,0,VALID,92.8303,VALID,0,VALID,18.6903,VALID,138,VALID,1.72187,
2015-01-19, 03:05:05,VALID,918.065,VALID,0,VALID,92.6093,VALID,0,VALID,18.7098,VALID,124,VALID,1.38789,
2015-01-19, 03:06:05,VALID,918.063,VALID,0,VALID,92.6169,VALID,0,VALID,18.7293,VALID,127,VALID,1.31719,
2015-01-19, 03:07:05,VALID,918.056,VALID,0,VALID,92.5102,VALID,0,VALID,18.7293,VALID,137,VALID,1.66055,
2015-01-19, 03:08:05,VALID,918.068,VALID,0,VALID,92.4797,VALID,0,VALID,18.7878,VALID,140,VALID,1.74688,
2015-01-19, 03:09:05,VALID,918.066,VALID,0,VALID,92.2586,VALID,0,VALID,18.8073,VALID,132,VALID,2.00078,
2015-01-19, 03:10:05,VALID,918.054,VALID,0,VALID,92.1823,VALID,0,VALID,18.9048,VALID,126,VALID,2.95234,
2015-01-19, 03:11:05,VALID,918.078,VALID,0,VALID,91.4734,VALID,0,VALID,18.9424,VALID,105,VALID,1.01445,
2015-01-19, 03:12:05,VALID,918.062,VALID,0,VALID,91.1837,VALID,0,VALID,18.9828,VALID,124,VALID,1.87305,
2015-01-19, 03:13:05,VALID,918.06,VALID,0,VALID,91.0998,VALID,0,VALID,19.0218,VALID,119,VALID,2.12734,
2015-01-19, 03:14:05,VALID,918.062,VALID,0,VALID,90.8711,VALID,0,VALID,19.0413,VALID,115,VALID,1.80508,
2015-01-19, 03:15:05,VALID,918.06,VALID,0,VALID,90.7187,VALID,0,VALID,19.1193,VALID,112,VALID,2.07813,
2015-01-19, 03:16:05,VALID,918.071,VALID,0,VALID,90.4137,VALID,0,VALID,19.1388,VALID,126,VALID,2.29805,
2015-01-19, 03:17:05,VALID,918.068,VALID,0,VALID,90.1926,VALID,0,VALID,19.1778,VALID,120,VALID,1.27617,
2015-01-19, 03:18:05,VALID,918.093,VALID,0,VALID,90.1164,VALID,0,VALID,19.1583,VALID,120,VALID,1.73438,
2015-01-19, 03:19:05,VALID,918.149,VALID,0,VALID,90.1774,VALID,0,VALID,19.1583,VALID,131,VALID,2.26367,
2015-01-19, 03:20:05,VALID,918.138,VALID,0,VALID,90.2079,VALID,0,VALID,19.1178,VALID,126,VALID,1.92305,
2015-01-19, 03:21:05,VALID,918.136,VALID,0,VALID,90.2536,VALID,0,VALID,19.0998,VALID,123,VALID,1.90313,
2015-01-19, 03:22:05,VALID,918.137,VALID,0,VALID,90.3985,VALID,0,VALID,19.0608,VALID,131,VALID,1.45508,
2015-01-19, 03:23:05,VALID,918.107,VALID,0,VALID,90.6272,VALID,0,VALID,18.9619,VALID,122,VALID,1.97383,
2015-01-19, 03:24:05,VALID,918.079,VALID,0,VALID,90.8864,VALID,0,VALID,18.9229,VALID,123,VALID,1.26016,
2015-01-19, 03:25:05,VALID,918.064,VALID,0,VALID,91.0465,VALID,0,VALID,18.8839,VALID,130,VALID,1.48906,
2015-01-19, 03:26:05,VALID,918.005,VALID,0,VALID,91.3057,VALID,0,VALID,18.8658,VALID,138,VALID,1.67695,
2015-01-19, 03:27:05,VALID,918.011,VALID,0,VALID,91.4048,VALID,0.107441,VALID,18.8449,VALID,140,VALID,1.52852,
2015-01-19, 03:28:05,VALID,917.998,VALID,0,VALID,91.5648,VALID,0,VALID,18.8268,VALID,130,VALID,1.26055,
2015-01-19, 03:29:05,VALID,917.985,VALID,0,VALID,91.7097,VALID,0,VALID,18.8073,VALID,127,VALID,1.13477,
2015-01-19, 03:30:05,VALID,917.985,VALID,0,VALID,92.0909,VALID,0,VALID,18.8268,VALID,129,VALID,1.87188,
2015-01-19, 03:31:05,VALID,917.93,VALID,0,VALID,92.0985,VALID,0,VALID,18.8059,VALID,131,VALID,1.35352,
2015-01-19, 03:32:05,VALID,917.921,VALID,0,VALID,92.3196,VALID,0,VALID,18.8073,VALID,127,VALID,1.8543,
2015-01-19, 03:33:04,VALID,917.894,VALID,0,VALID,92.4415,VALID,0,VALID,18.7683,VALID,147,VALID,1.14102,
2015-01-19, 03:34:04,VALID,917.869,VALID,0,VALID,92.6474,VALID,0,VALID,18.7488,VALID,140,VALID,1.09609,
2015-01-19, 03:35:04,VALID,917.88,VALID,0,VALID,93.2801,VALID,0,VALID,18.7488,VALID,139,VALID,1.3832,
2015-01-19, 03:36:04,VALID,917.881,VALID,0,VALID,93.4936,VALID,0.107441,VALID,18.7488,VALID,114,VALID,1.00312,
2015-01-19, 03:37:04,VALID,917.906,VALID,0,VALID,94.012,VALID,0,VALID,18.7279,VALID,137,VALID,1.50312,
2015-01-19, 03:38:04,VALID,917.905,VALID,0,VALID,94.3703,VALID,0,VALID,18.7683,VALID,122,VALID,1.21758,
2015-01-19, 03:39:04,VALID,917.904,VALID,0,VALID,94.5304,VALID,0,VALID,18.7279,VALID,109,VALID,0.91875,
2015-01-19, 03:40:04,VALID,917.898,VALID,0,VALID,94.4922,VALID,0,VALID,18.7098,VALID,115,VALID,0.152734,
2015-01-19, 03:41:04,VALID,917.86,VALID,0,VALID,94.4922,VALID,0.107441,VALID,18.6499,VALID,107,VALID,0,
2015-01-19, 03:42:04,VALID,917.833,VALID,0,VALID,94.5151,VALID,0,VALID,18.6304,VALID,103,VALID,0,
2015-01-19, 03:43:04,VALID,917.82,VALID,0,VALID,94.7743,VALID,0,VALID,18.6109,VALID,116,VALID,0.00273437,
2015-01-19, 03:44:04,VALID,917.824,VALID,0,VALID,95.0945,VALID,0.107441,VALID,18.6319,VALID,141,VALID,0,
2015-01-19, 03:45:04,VALID,917.827,VALID,0,VALID,95.247,VALID,0,VALID,18.6109,VALID,142,VALID,0,
2015-01-19, 03:46:04,VALID,917.838,VALID,0,VALID,95.3308,VALID,0,VALID,18.6304,VALID,146,VALID,0,
2015-01-19, 03:47:04,VALID,917.834,VALID,0,VALID,95.3766,VALID,0,VALID,18.6513,VALID,143,VALID,0,
2015-01-19, 03:48:04,VALID,917.831,VALID,0,VALID,95.3994,VALID,0,VALID,18.6708,VALID,161,VALID,1.56211,
2015-01-19, 03:49:04,VALID,917.82,VALID,0,VALID,95.4071,VALID,0,VALID,18.6304,VALID,159,VALID,1.31758,
2015-01-19, 03:50:04,VALID,917.83,VALID,0,VALID,95.4452,VALID,0,VALID,18.6304,VALID,169,VALID,1.32227,
2015-01-19, 03:51:04,VALID,917.807,VALID,0,VALID,95.5138,VALID,0,VALID,18.6499,VALID,142,VALID,1.1,
2015-01-19, 03:52:04,VALID,917.816,VALID,0,VALID,95.5138,VALID,0.107441,VALID,18.6304,VALID,161,VALID,0.819922,